Temperature
18 18 18 18 18 18 18 18 18 18 18 18 17 17 18 18 18 18 18 18 18 18 18 18 18 18 17 17 17 17 17 17 17 17 17 17 17 17 17 17 17 17 17
18 18 18 18 18 18 18 17 17 17 17 17 17 17 18 18 18 18 18 18 18 18 18 17 18 17 17 17 17 17 17 17 17 17 17 17 17 16 16 17 17 17 17
18 18 18 17 17 17 17 17 17 17 17 17 17 17 17 17 17 17 17 17 17 17 17 18 17 17 17 17 17 17 17 17 17 17 17 17 17 17 17 16 16 16 17
18 17 17 17 17 17 17 17 17 17 17 17 17 17 17 17 17 17 17 17 17 17 17 17 17 17 17 17 17 17 18 17 17 17 17 17 17 17 17 17 16 16 16
17 17 18 17 17 17 17 17 17 16 16 16 16 16 16 17 17 17 17 17 17 17 17 17 17 17 17 17 17 17 18 18 17 17 17 17 17 17 17 17 17 16 16
17 17 17 17 17 17 17 16 16 16 16 16 16 16 16 16 16 16 17 17 17 17 17 17 17 17 17 17 17 17 18 18 18 18 17 17 17 17 17 17 17 17 16
17 17 17 17 17 17 16 16 16 16 16 16 16 16 16 16 16 16 17 17 17 17 17 17 17 17 17 17 17 17 18 18 18 18 18 17 17 17 17 17 17 17 17
17 17 17 17 17 17 17 16 16 16 16 15 15 16 16 16 16 16 16 16 16 16 16 17 17 17 17 17 17 17 18 18 18 18 18 17 17 17 17 17 17 17 17
17 17 17 17 17 17 17 17 16 16 15 15 15 15 16 16 16 16 16 16 16 16 16 16 17 17 17 17 18 18 18 18 18 17 17 17 17 17 17 17 17 17 17
17 17 17 17 17 17 17 17 16 16 16 15 15 15 15 15 15 15 15 15 15 15 16 16 16 17 17 17 18 18 17 17 17 17 17 17 17 17 17 17 17 17 17
16 16 17 17 16 16 16 16 16 16 16 16 15 15 15 15 15 14 15 15 16 16 16 16 16 17 17 17 17 17 18 17 17 17 17 17 17 17 17 17 17 17 17
15 15 15 16 16 16 16 16 16 16 16 16 16 15 15 15 15 14 14 14 15 16 16 16 16 16 17 17 17 17 17 17 17 17 17 17 16 17 17 17 17 17 17
14 14 14 14 14 15 15 15 15 16 16 16 16 16 15 15 14 14 14 13 13 15 15 16 15 16 16 16 17 17 17 17 17 17 17 17 16 16 16 16 16 16 16
12 13 13 13 13 13 14 14 15 15 15 15 16 15 15 15 14 14 14 13 13 13 14 15 15 15 15 16 16 16 16 17 17 17 17 16 16 16 16 16 16 16 16
11 12 12 12 12 12 12 13 13 14 14 14 15 15 15 15 15 14 14 13 13 12 13 14 14 14 15 15 15 15 16 16 16 16 16 16 16 16 16 16 16 16 16
11 11 11 11 11 11 12 12 12 13 13 13 14 14 14 15 14 14 14 14 13 13 12 13 13 13 14 14 14 14 15 15 15 16 16 15 15 15 15 15 15 15 15
10 10 10 10 10 11 11 11 11 12 12 13 13 13 14 14 14 14 14 14 13 13 13 13 13 13 13 13 13 13 14 14 14 14 15 15 15 15 15 15 15 15 15
10 10 10 10 10 10 10 10 11 11 11 12 12 12 13 13 13 14 14 13 13 13 13 13 13 13 13 13 13 13 13 13 13 13 14 14 14 14 14 14 14 14 14
10 10 10 9 9 9 9 9 9 10 10 11 11 11 12 12 12 13 13 13 13 13 13 13 13 13 12 12 12 12 12 12 12 12 12 13 13 13 13 13 13 13 13
10 10 10 9 9 9 9 9 9 9 9 10 10 10 11 11 12 12 13 13 13 13 13 13 13 12 12 12 12 12 12 11 11 12 12 12 12 12 12 12 13 13 13
10 10 9 9 9 9 9 9 9 9 9 9 9 10 10 11 11 12 12 13 13 13 13 13 12 12 12 12 12 12 11 11 11 11 11 11 11 12 12 12 12 12 12
9 9 9 9 9 9 9 9 9 9 8 9 9 9 10 10 10 11 12 12 13 13 13 13 12 12 12 12 12 12 11 11 10 10 11 11 11 11 11 11 11 11 11
9 9 9 9 9 8 8 8 8 8 8 8 9 9 9 10 10 11 11 12 12 12 13 13 12 13 13 12 12 12 11 11 11 10 10 10 10 10 10 10 10 10 10
7 8 8 8 8 8 8 8 8 8 8 8 9 9 9 9 10 10 11 11 12 12 12 12 13 13 13 13 13 12 12 11 11 10 10 10 9 9 9 9 9 9 9
6 7 7 7 7 8 8 8 8 8 8 8 8 8 9 9 9 10 10 11 11 12 12 12 12 12 12 12 12 12 11 11 10 9 10 10 9 9 9 8 8 8 8
5 6 6 6 7 7 7 7 7 8 8 8 8 8 8 9 9 9 10 10 11 12 12 12 12 12 12 12 12 12 12 11 10 9 9 10 9 9 7 7 8 7 7
Wind_Speed
9 7 7 9 10 11 9 8 5 8 8 10 11 11 10 11 12 12 12 16 18 17 17 17 17 18 20 21 23 24 24 25 25 24 24 23 22 22 21 20 19 18 18
8 8 8 7 8 10 10 8 7 7 7 6 8 8 9 10 10 11 12 13 16 16 16 17 17 17 17 17 19 21 22 23 24 25 25 24 23 23 22 22 21 20 20
10 8 8 8 7 9 8 6 6 4 5 5 6 7 6 8 8 10 11 11 11 14 16 17 18 18 17 17 18 19 20 22 23 24 25 26 25 24 24 24 24 23 22
11 7 7 7 6 6 5 4 4 3 4 4 4 4 5 5 7 8 9 10 11 11 13 16 18 19 19 19 19 19 19 20 22 23 25 26 26 26 25 25 25 25 24
12 8 7 6 5 4 4 4 3 3 3 4 4 4 4 5 6 6 7 9 10 11 11 13 17 18 19 21 20 20 19 19 20 21 23 25 26 26 26 26 25 25 25
11 7 6 6 5 4 4 3 3 2 2 3 2 3 3 4 5 6 7 7 8 10 11 12 12 13 17 19 20 20 20 21 21 21 22 24 26 26 26 26 26 25 25
8 7 6 6 6 5 5 5 3 3 3 2 1 2 2 3 4 5 5 5 5 6 8 9 10 10 11 15 19 20 22 23 23 23 23 23 24 25 25 26 26 26 25
7 6 7 6 7 5 5 5 4 3 2 3 3 1 2 2 1 1 1 2 2 2 3 5 7 9 10 10 13 19 22 23 23 23 23 22 23 23 23 23 24 25 26
4 4 6 6 6 7 7 7 6 6 4 3 3 3 3 3 2 2 1 1 1 2 3 4 6 8 10 11 12 16 20 21 22 23 24 23 23 22 21 21 20 22 24
5 2 3 4 6 6 6 7 7 5 5 4 3 2 2 3 2 1 2 2 3 3 4 5 6 7 9 10 12 15 18 19 20 21 22 22 22 20 19 18 18 19 20
7 6 4 3 4 5 7 7 7 7 6 5 4 3 2 1 2 2 3 3 3 3 4 5 6 6 7 8 10 13 17 18 19 19 19 20 21 20 19 17 16 15 16
5 6 6 5 4 4 6 7 8 9 8 6 5 4 4 3 3 4 5 4 4 4 4 4 4 4 5 6 8 11 13 15 16 16 17 18 19 19 18 16 15 14 14
3 5 5 5 4 5 6 7 8 9 9 8 8 6 6 5 3 4 3 3 3 3 3 2 2 3 4 5 5 6 8 10 11 12 13 14 15 16 15 14 13 11 10
4 5 4 4 5 5 5 6 7 9 8 10 10 8 6 7 6 5 4 3 2 2 2 3 2 2 3 4 5 5 1 4 7 8 9 10 12 12 13 12 10 8 7
5 5 5 5 5 4 4 4 5 8 8 9 9 9 7 6 7 7 6 5 4 2 2 2 1 2 3 4 5 5 4 4 7 9 11 11 12 12 12 12 12 11 10
7 6 6 6 5 5 4 3 3 5 7 8 7 9 9 6 6 7 7 6 6 5 4 2 1 0 2 3 5 6 7 9 10 12 13 14 15 16 16 16 16 16 15
8 8 8 7 7 6 5 4 4 4 5 6 7 8 9 8 7 7 7 7 7 6 6 4 2 1 1 3 4 6 8 8 9 13 15 16 18 18 18 18 17 17 17
10 9 8 8 8 7 6 5 6 4 4 5 6 7 8 7 9 8 7 8 7 8 6 6 3 2 2 5 6 7 6 8 9 13 15 16 17 18 18 18 18 18 18
11 10 9 9 9 9 7 7 7 6 6 5 5 6 7 7 9 8 8 8 7 7 6 5 4 2 2 5 6 7 8 7 9 12 14 15 16 17 18 19 19 19 20
11 11 10 10 10 9 9 8 7 7 7 7 6 5 6 8 9 9 9 9 8 7 7 6 5 4 3 5 7 8 7 6 6 7 10 13 16 17 17 18 19 20 21
12 11 10 10 10 9 9 9 8 8 7 7 6 6 7 8 11 10 8 9 9 8 7 7 6 6 6 7 8 6 8 8 6 5 7 7 9 10 12 16 18 20 21
11 11 11 11 10 9 12 14 10 8 7 7 7 6 7 9 11 12 14 13 13 11 10 9 8 8 10 8 8 11 10 8 5 4 6 6 6 8 8 11 16 20 21
10 10 11 11 11 11 14 14 14 9 9 8 8 7 6 6 8 7 10 13 14 15 14 11 11 11 12 12 13 13 12 8 6 9 8 6 6 8 8 12 16 19 20
9 9 10 11 10 11 13 14 14 10 9 9 9 8 7 7 7 7 7 9 10 11 14 13 11 11 11 14 15 13 13 10 10 6 4 6 5 6 6 9 13 17 18
9 9 8 10 10 10 12 13 12 6 8 9 8 8 8 8 9 9 9 9 9 9 11 14 13 11 14 17 17 15 14 14 11 6 3 5 6 5 5 5 8 12 15
10 10 10 9 10 10 12 13 11 6 8 7 6 6 8 9 8 9 9 9 10 9 8 9 10 12 15 19 21 18 17 17 14 7 5 5 9 6 5 3 4 7 9
Wind_Direction
235 230 231 234 235 236 241 243 237 234 231 228 227 228 230 231 234 235 241 249 251 245 241 243 243 238 233 228 221 217 213 212 212 212 214 213 212 211 209 209 208 207 204
234 235 233 232 234 233 234 235 233 230 229 227 228 226 230 233 236 240 243 250 255 253 251 250 249 246 240 232 225 220 216 214 213 214 214 215 215 214 213 212 212 211 210
240 237 236 239 237 232 229 229 228 222 226 226 231 232 232 235 235 241 244 247 255 259 259 258 256 253 246 239 232 225 220 218 215 215 215 215 216 216 216 215 214 214 213
246 240 235 235 230 222 212 210 205 205 217 218 225 232 232 235 238 240 243 247 250 254 256 256 255 253 247 241 237 232 227 223 219 217 216 215 216 217 217 218 217 216 216
242 234 229 226 208 198 199 201 186 185 197 207 221 235 238 238 244 245 244 247 246 246 248 253 254 253 250 245 240 236 233 228 224 224 221 218 217 216 217 219 220 219 218
236 217 218 205 185 181 186 185 174 176 187 194 226 248 254 251 251 249 251 252 251 249 249 250 253 255 252 249 243 237 235 232 227 227 227 223 219 217 217 217 219 221 220
233 208 206 190 181 185 190 182 168 178 190 164 159 290 295 268 258 251 247 248 252 253 252 251 249 249 253 251 246 240 237 236 230 227 227 225 222 218 217 217 218 219 220
234 217 205 195 187 183 184 184 173 169 182 173 164 166 307 329 315 292 268 230 245 266 269 264 254 249 248 249 245 241 238 237 233 229 226 223 222 219 217 218 218 219 220
262 226 212 202 194 188 191 192 185 175 184 195 192 164 174 228 294 317 317 305 301 295 295 291 276 263 254 249 248 245 240 235 232 230 227 222 219 217 216 219 221 222 222
344 319 260 226 210 203 200 198 193 183 169 183 201 207 188 171 183 304 317 320 316 293 296 294 291 279 265 253 245 240 237 233 230 229 226 219 212 209 210 214 221 227 227
358 1 342 293 245 226 219 207 192 191 186 180 179 174 184 192 190 202 267 306 312 290 285 286 289 287 280 264 252 242 233 229 227 225 221 216 212 207 205 207 216 226 232
344 356 354 338 300 260 237 224 209 199 197 189 185 181 176 176 188 195 225 258 286 291 295 289 291 299 299 287 268 251 236 227 223 219 214 212 210 204 202 206 216 226 233
316 323 336 326 313 287 262 237 221 213 201 198 196 197 200 203 180 178 202 240 269 291 301 304 307 329 328 325 309 280 245 221 211 205 205 202 198 197 196 195 202 214 222
263 279 297 302 304 304 287 253 232 223 210 207 206 200 200 207 198 191 190 197 247 273 282 286 323 7 6 359 -0 358 281 197 184 178 177 178 178 177 174 172 172 176 180
260 266 282 287 292 296 295 280 250 235 220 215 211 206 205 204 199 202 198 194 201 239 270 270 300 31 35 26 22 31 42 92 125 131 133 135 136 137 138 136 134 131 127
251 263 271 275 279 279 279 274 269 256 235 226 216 211 212 207 200 198 199 201 203 210 239 244 240 23 49 58 58 64 73 82 92 107 115 118 115 115 116 116 116 116 113
244 246 253 261 267 268 263 259 257 256 252 240 227 219 220 209 203 200 195 195 201 205 232 244 223 192 145 121 97 86 79 77 86 96 105 109 110 111 111 111 110 109 107
241 239 243 251 259 260 251 245 253 247 246 258 245 229 226 217 213 202 195 198 200 202 214 232 219 191 170 147 126 107 91 83 86 93 100 105 107 108 109 109 108 107 106
239 236 232 240 249 253 251 246 241 238 228 233 250 245 236 222 222 209 201 202 201 198 202 214 216 194 162 147 131 111 101 95 90 94 95 100 105 107 108 108 108 107 105
233 234 232 233 239 245 248 248 243 241 234 225 225 239 245 231 227 216 207 205 195 192 197 207 213 203 176 155 143 134 122 105 98 95 94 99 102 103 106 109 110 108 106
235 231 231 232 235 238 243 240 238 239 234 231 228 225 235 242 239 224 210 202 191 193 195 204 205 198 181 168 159 145 135 119 94 103 105 96 99 98 101 106 109 110 107
237 228 226 228 230 235 236 233 226 229 231 232 237 237 236 244 244 233 222 206 194 193 198 201 203 201 189 171 155 150 143 141 129 134 113 93 96 97 96 105 112 112 109
243 231 227 224 227 233 236 241 238 228 229 232 234 239 247 241 238 232 226 214 208 204 200 200 204 202 187 173 161 159 159 150 135 149 129 105 98 93 95 106 113 113 112
250 240 233 225 223 233 234 239 243 237 231 233 234 233 238 247 239 228 219 217 216 215 214 215 216 207 189 174 168 158 146 119 112 130 126 118 118 104 100 103 111 115 116
257 246 237 225 223 233 235 238 238 228 230 234 234 234 233 242 242 226 219 217 218 221 218 215 213 199 174 162 154 144 143 141 141 145 128 118 132 116 103 101 108 118 119
257 251 243 229 224 232 237 238 233 221 227 232 233 232 232 236 239 223 219 216 218 216 199 198 197 183 170 161 158 160 157 154 150 150 165 133 149 137 120 122 127 129 127
Height
1521 1522 1523 1524 1524 1525 1526 1527 1527 1527 1528 1528 1529 1530 1531 1531 1532 1533 1534 1535 1536 1536 1537 1538 1540 1541 1542 1543 1545 1547 1549 1551 1553 1555 1558 1561 1563 1565 1568 1570 1573 1575 1577
1516 1518 1519 1520 1520 1521 1521 1522 1522 1523 1523 1524 1524 1525 1526 1527 1528 1529 1529 1530 1531 1532 1533 1534 1535 1537 1538 1539 1541 1542 1544 1546 1548 1551 1554 1556 1559 1562 1564 1567 1569 1572 1574
1511 1513 1514 1514 1516 1516 1516 1516 1517 1517 1518 1518 1519 1520 1521 1522 1523 1523 1524 1525 1526 1527 1528 1530 1531 1532 1534 1535 1536 1538 1540 1542 1544 1547 1549 1552 1555 1557 1560 1563 1565 1568 1571
1507 1509 1509 1510 1511 1511 1511 1511 1511 1512 1512 1513 1514 1515 1515 1516 1517 1518 1519 1519 1520 1521 1523 1524 1525 1527 1528 1530 1532 1533 1536 1538 1540 1542 1545 1547 1550 1553 1556 1558 1561 1564 1567
1503 1504 1505 1506 1506 1507 1507 1507 1507 1507 1508 1509 1509 1510 1510 1511 1512 1512 1513 1514 1515 1516 1517 1518 1520 1521 1523 1525 1526 1528 1531 1533 1535 1537 1540 1542 1545 1548 1551 1554 1557 1559 1562
1500 1501 1502 1502 1503 1503 1503 1503 1503 1504 1504 1505 1505 1506 1506 1506 1507 1507 1508 1509 1510 1511 1512 1513 1514 1516 1517 1519 1520 1522 1524 1527 1530 1532 1535 1537 1540 1543 1546 1549 1552 1555 1558
1497 1498 1499 1499 1499 1499 1500 1500 1500 1500 1500 1501 1502 1502 1502 1501 1501 1502 1503 1504 1505 1506 1507 1508 1509 1511 1512 1513 1515 1517 1519 1521 1524 1527 1529 1532 1535 1538 1541 1544 1547 1550 1552
1494 1495 1496 1496 1496 1496 1496 1496 1496 1496 1497 1497 1498 1498 1498 1498 1497 1498 1498 1499 1500 1501 1503 1504 1504 1505 1507 1508 1510 1512 1513 1515 1518 1521 1523 1526 1530 1533 1535 1538 1541 1544 1547
1490 1491 1491 1492 1493 1493 1493 1493 1493 1493 1493 1494 1494 1495 1495 1494 1495 1496 1496 1496 1497 1498 1498 1499 1500 1501 1502 1503 1505 1507 1508 1510 1512 1515 1517 1520 1524 1527 1530 1532 1535 1538 1542
1484 1485 1486 1488 1489 1489 1489 1489 1489 1489 1490 1490 1491 1491 1492 1492 1493 1493 1494 1494 1494 1494 1494 1495 1496 1496 1497 1498 1500 1502 1504 1505 1507 1509 1512 1514 1517 1521 1523 1526 1529 1532 1536
1479 1479 1480 1481 1483 1484 1485 1486 1486 1486 1486 1486 1487 1488 1488 1489 1489 1490 1490 1491 1491 1490 1490 1490 1490 1492 1493 1494 1495 1497 1499 1501 1503 1505 1507 1509 1511 1514 1517 1520 1523 1526 1530
1475 1474 1474 1474 1476 1477 1478 1480 1481 1482 1482 1482 1483 1484 1485 1485 1486 1486 1487 1486 1486 1486 1486 1486 1486 1487 1488 1490 1491 1493 1495 1497 1498 1500 1502 1504 1506 1509 1511 1514 1517 1521 1524
1471 1470 1469 1469 1469 1470 1471 1473 1475 1476 1477 1478 1479 1480 1481 1482 1483 1483 1484 1483 1483 1482 1482 1482 1483 1483 1484 1486 1487 1489 1491 1493 1495 1496 1498 1500 1502 1504 1507 1509 1512 1515 1518
1467 1466 1464 1464 1463 1463 1464 1465 1467 1469 1471 1473 1474 1475 1476 1478 1479 1480 1481 1481 1480 1480 1479 1479 1480 1480 1481 1482 1484 1486 1488 1490 1491 1493 1495 1496 1497 1499 1502 1504 1507 1510 1513
1462 1460 1459 1458 1457 1457 1457 1457 1459 1461 1464 1466 1468 1470 1471 1473 1474 1476 1477 1478 1478 1477 1477 1477 1478 1478 1479 1480 1481 1483 1485 1486 1488 1490 1491 1493 1494 1496 1498 1501 1503 1506 1508
1456 1455 1454 1453 1452 1451 1451 1450 1451 1453 1455 1458 1461 1463 1465 1467 1469 1471 1472 1473 1474 1475 1475 1475 1476 1477 1477 1478 1479 1480 1482 1484 1485 1487 1488 1490 1491 1493 1495 1498 1500 1502 1505
1450 1449 1448 1447 1446 1445 1444 1444 1445 1446 1447 1450 1453 1456 1459 1462 1464 1465 1467 1469 1470 1470 1471 1472 1474 1475 1475 1476 1477 1478 1480 1482 1483 1485 1486 1488 1489 1491 1493 1495 1498 1500 1502
1442 1442 1442 1441 1440 1439 1439 1438 1438 1438 1440 1442 1445 1448 1451 1454 1457 1460 1462 1463 1465 1466 1467 1469 1470 1472 1473 1474 1476 1477 1479 1481 1482 1484 1485 1487 1489 1490 1492 1494 1496 1498 1500
1434 1434 1434 1434 1434 1434 1433 1432 1432 1432 1433 1434 1437 1439 1443 1446 1450 1453 1455 1458 1460 1461 1463 1465 1466 1469 1470 1472 1474 1476 1478 1480 1482 1484 1485 1487 1489 1490 1492 1494 1496 1498 1500
1425 1425 1426 1426 1427 1427 1427 1427 1427 1427 1427 1428 1430 1432 1435 1438 1442 1445 1449 1451 1454 1456 1458 1460 1462 1465 1467 1469 1471 1474 1477 1479 1481 1484 1485 1487 1489 1491 1492 1494 1496 1498 1500
1416 1417 1417 1418 1419 1420 1420 1421 1422 1422 1422 1423 1425 1426 1428 1431 1434 1437 1441 1444 1447 1450 1452 1454 1457 1460 1463 1465 1468 1471 1474 1477 1481 1483 1485 1487 1489 1491 1493 1495 1496 1498 1500
1405 1407 1408 1410 1411 1412 1414 1415 1416 1417 1418 1419 1420 1421 1423 1425 1427 1430 1433 1437 1440 1443 1446 1449 1451 1454 1457 1460 1464 1467 1471 1475 1479 1483 1485 1487 1490 1492 1494 1496 1497 1499 1501
1395 1397 1399 1401 1402 1405 1407 1408 1410 1411 1412 1413 1415 1416 1417 1419 1421 1423 1426 1430 1433 1436 1440 1443 1445 1448 1451 1455 1459 1463 1468 1472 1475 1479 1484 1486 1490 1492 1495 1497 1499 1500 1502
1385 1387 1389 1392 1394 1397 1399 1401 1403 1405 1406 1408 1409 1411 1412 1413 1415 1417 1420 1422 1425 1429 1433 1436 1439 1443 1447 1450 1454 1459 1464 1469 1475 1480 1484 1486 1490 1492 1495 1498 1500 1501 1503
1375 1377 1380 1383 1385 1388 1392 1394 1397 1398 1400 1402 1404 1405 1406 1407 1409 1411 1413 1415 1418 1422 1426 1430 1433 1437 1441 1445 1449 1454 1460 1465 1471 1477 1483 1485 1489 1492 1496 1498 1500 1502 1504
1367 1369 1371 1374 1377 1380 1384 1387 1389 1391 1393 1396 1398 1400 1401 1402 1403 1404 1406 1409 1412 1416 1420 1424 1427 1431 1435 1439 1444 1449 1454 1460 1466 1474 1480 1483 1487 1491 1495 1499 1501 1503 1505